SCP
2 2 2 2 2 2 2 2 2 2 2 2 2 2 2 2 2 2 2 1 1 1 1 1 1 0 0 0 0 0 0 0 0 0 0 0 0 0 0 0 0 0 0
2 2 2 2 2 2 3 3 2 2 2 2 2 2 2 2 2 2 2 1 1 1 1 1 1 0 0 0 0 0 0 0 0 0 0 0 0 0 0 0 0 0 0
2 2 2 2 2 2 3 3 3 2 2 2 2 2 2 2 2 2 2 1 1 1 1 1 1 0 0 0 0 0 0 0 0 0 0 0 0 0 0 0 0 0 0
1 2 2 2 2 3 3 3 3 2 2 2 2 2 2 2 2 2 1 1 1 1 1 1 1 0 0 0 0 0 0 0 0 0 0 0 0 0 0 0 0 0 0
1 1 1 2 2 3 3 3 3 3 2 2 2 3 3 2 2 2 1 1 1 1 1 1 1 1 0 0 0 0 0 0 0 0 0 0 0 0 0 0 0 0 0
1 1 1 2 2 3 3 3 3 3 3 3 3 3 3 2 2 2 1 1 1 1 1 1 1 1 0 0 0 0 0 0 0 0 0 0 0 0 0 0 0 0 0
1 1 1 2 2 2 3 3 3 3 3 3 3 3 3 3 2 2 2 1 1 1 1 1 1 1 1 0 0 0 0 0 0 0 0 0 0 0 0 0 0 0 0
1 1 1 2 2 2 2 2 3 3 3 3 3 3 3 3 2 2 2 2 1 1 1 1 1 1 1 1 1 1 0 0 0 0 0 0 0 0 0 0 0 0 0
1 1 1 2 2 2 2 2 2 3 3 3 2 2 3 3 3 3 2 2 1 1 1 1 1 1 1 1 1 1 0 0 0 0 0 0 0 0 0 0 0 0 0
1 1 1 1 2 2 2 2 2 2 3 2 2 2 2 3 3 3 2 2 1 1 1 1 1 1 1 1 1 1 0 0 0 0 0 0 0 0 0 0 0 0 0
1 1 1 1 1 1 1 1 2 2 2 2 1 1 2 2 3 3 2 2 1 1 1 1 1 1 1 0 0 0 0 0 0 0 0 0 0 0 0 0 0 0 0
1 1 1 1 1 1 1 1 1 1 1 1 1 1 1 2 2 2 2 1 1 1 1 1 1 1 1 0 0 0 0 0 0 0 0 0 0 0 0 0 0 0 0
0 0 1 1 1 1 1 1 1 1 1 1 1 1 1 2 2 2 2 1 1 1 1 1 1 1 0 0 0 0 0 0 0 0 0 0 0 0 0 0 0 0 0
0 0 0 0 1 1 1 1 1 1 1 1 1 1 1 2 2 2 1 1 1 1 1 1 1 1 0 0 0 0 0 0 0 0 0 0 0 1 1 1 0 0 0
0 0 0 0 0 0 0 0 0 0 1 1 1 1 1 1 2 2 1 1 1 1 1 1 1 1 0 0 0 0 0 0 0 0 0 0 0 1 1 1 1 1 1
0 0 0 0 0 0 0 0 0 1 1 1 1 1 1 1 1 1 2 1 1 1 1 1 1 1 1 0 0 0 0 0 0 0 0 0 0 0 1 1 1 1 1
0 0 0 0 0 0 0 0 0 1 1 1 1 1 1 1 1 1 2 1 1 1 1 1 1 1 1 0 0 0 0 0 0 0 0 0 0 0 1 1 1 1 1
0 0 0 0 0 0 0 0 1 1 1 1 1 1 1 1 1 1 1 1 1 1 1 1 1 1 1 0 0 0 0 0 0 0 0 0 0 0 0 1 1 1 1
0 0 0 0 0 0 0 0 1 1 1 0 0 1 1 1 1 1 1 2 2 1 1 1 1 1 1 1 0 0 0 0 0 0 0 0 0 0 0 0 1 1 1
0 0 0 0 0 0 0 0 1 1 0 0 0 1 1 1 1 1 1 2 2 1 1 1 1 1 1 1 1 0 0 0 0 0 0 0 0 0 0 0 0 0 1
0 0 0 0 0 0 0 0 0 0 0 0 0 0 1 1 1 1 1 1 2 2 1 1 1 1 1 1 1 1 0 0 0 0 0 0 0 0 0 0 0 0 0
0 0 0 0 0 0 0 0 0 0 0 0 0 0 1 1 1 1 1 1 2 2 2 1 1 1 1 1 1 1 1 0 0 0 0 0 0 0 0 0 0 0 0
0 0 0 0 0 0 0 0 0 0 0 0 0 0 1 1 1 1 1 1 1 2 2 2 1 1 1 1 1 1 1 0 0 0 0 0 0 0 0 0 0 0 0
0 0 0 0 0 0 0 0 0 0 1 0 0 1 1 1 1 1 1 1 1 2 2 2 1 1 1 1 1 1 1 0 0 0 0 0 0 0 0 0 0 0 0
0 0 0 0 0 0 0 0 0 0 0 0 0 0 0 1 1 1 1 1 1 2 2 2 1 1 0 1 1 1 1 0 0 0 0 0 0 0 0 0 0 0 0
0 0 0 0 0 0 0 0 0 0 0 0 0 0 0 0 1 1 1 1 1 1 2 2 2 1 0 0 1 1 1 0 0 0 0 0 0 0 0 0 0 0 0
Wind_Speed
1 1 4 6 8 10 10 10 11 10 10 11 11 11 12 13 13 13 13 13 13 12 12 12 12 12 13 13 14 14 15 15 15 14 13 12 14 14 14 14 12 8 14
2 2 4 6 7 8 9 9 9 10 10 10 10 11 11 12 12 13 13 12 12 12 12 12 12 12 12 13 13 14 14 14 14 13 11 10 11 13 13 13 12 8 13
3 2 3 4 6 6 7 8 9 9 9 10 10 11 11 11 12 12 12 12 11 11 11 11 11 11 12 12 13 13 13 13 13 11 9 5 8 13 13 12 12 13 13
3 2 3 3 4 5 6 7 8 9 9 10 10 10 10 10 11 11 12 11 11 11 11 11 11 11 12 12 12 12 12 12 10 8 4 3 4 11 12 12 12 12 12
3 2 2 3 3 4 5 5 6 8 8 9 9 10 10 10 10 11 11 11 10 10 10 11 11 11 11 11 11 11 11 9 8 6 4 3 3 10 11 11 11 11 11
3 2 2 3 2 3 4 4 5 6 8 8 9 10 10 10 10 11 10 10 10 10 11 11 12 11 10 10 10 9 9 8 7 4 4 3 3 9 11 11 11 10 10
2 2 1 1 1 2 3 4 5 5 7 8 9 9 10 11 11 10 10 10 11 11 11 12 12 11 10 9 9 8 7 7 5 4 3 3 4 10 11 10 9 9 9
2 2 1 2 1 1 3 4 5 5 6 7 8 9 9 10 10 10 10 11 12 13 13 12 12 12 10 9 7 6 6 5 6 5 4 3 6 9 10 9 8 8 8
4 3 3 2 1 2 3 4 5 5 5 6 7 8 8 8 9 10 10 10 12 13 13 12 12 12 11 9 7 6 5 5 4 3 4 3 7 10 10 9 8 8 7
4 4 3 3 2 2 2 4 5 5 6 6 7 7 7 8 9 10 10 10 11 12 13 12 12 11 10 8 7 6 5 4 4 3 3 4 9 10 10 9 8 7 7
5 4 4 3 3 2 3 3 3 5 6 6 6 7 7 5 6 7 9 10 11 12 13 13 12 11 9 7 7 6 4 2 3 3 3 7 11 11 10 9 8 7 6
6 5 4 3 3 3 3 2 2 2 3 4 4 5 4 4 5 6 9 11 11 12 12 13 12 10 6 3 4 5 2 3 3 3 4 10 12 11 11 10 8 8 7
4 5 5 4 3 3 2 2 2 1 2 3 4 5 4 4 3 4 4 6 7 8 7 8 8 5 4 3 3 3 3 3 2 3 4 10 12 12 11 11 10 8 8
5 5 5 5 4 3 3 2 2 2 2 2 3 5 4 3 4 4 4 5 5 4 5 5 4 5 5 5 5 4 4 3 3 3 4 10 11 12 12 12 11 10 9
5 6 6 5 4 4 3 2 2 2 2 3 2 4 5 4 5 5 5 5 5 5 6 5 5 6 6 5 5 5 5 5 4 4 4 10 11 11 12 12 11 11 10
5 6 6 6 5 4 3 3 2 2 2 2 2 3 5 5 5 5 6 6 6 6 6 6 7 6 5 5 5 5 5 5 5 5 4 6 10 11 12 12 12 11 11
5 6 5 5 5 4 3 4 3 2 2 2 2 3 4 4 5 5 5 6 6 6 7 6 6 4 4 4 5 5 5 5 5 6 5 4 5 9 11 12 12 12 11
5 6 6 5 5 4 4 3 2 2 2 2 2 2 4 5 5 5 5 5 6 6 6 6 6 5 5 5 4 5 4 4 6 6 5 5 5 5 8 11 11 12 12
5 5 5 5 5 4 4 3 3 2 2 2 2 2 3 4 5 5 4 5 6 5 5 6 6 5 5 5 5 4 4 4 5 5 6 6 6 5 5 8 10 10 10
5 5 5 5 5 4 3 3 2 2 2 2 2 2 3 3 4 4 4 5 5 5 5 6 6 5 5 4 4 4 4 4 4 5 6 6 6 7 6 6 6 7 10
6 6 5 5 5 3 2 2 1 2 2 2 2 3 4 3 4 4 4 5 5 5 6 6 5 6 5 3 2 2 2 3 4 5 5 5 6 7 6 6 5 4 5
6 6 6 5 5 4 3 2 2 2 2 2 3 3 4 4 4 4 5 5 5 5 6 6 6 5 4 5 4 3 2 2 3 5 4 5 6 5 6 7 6 6 5
6 6 6 6 5 5 4 2 2 1 1 1 2 3 4 4 4 3 4 4 4 5 5 6 6 7 5 5 4 4 4 4 2 2 4 5 5 5 5 5 7 7 7
6 6 6 6 6 5 3 2 2 2 3 3 2 2 3 3 3 4 4 5 4 4 5 6 6 5 6 5 4 3 2 3 3 2 2 4 5 6 6 5 7 7 7
6 5 5 6 6 5 4 2 2 2 3 2 2 2 2 2 2 3 4 4 4 4 5 5 5 6 5 5 4 3 2 1 2 2 3 3 3 5 5 6 6 6 7
5 5 5 5 6 5 4 3 2 2 3 3 3 2 2 1 1 2 2 3 4 4 5 5 5 5 5 5 4 4 3 3 3 2 2 3 4 4 5 5 6 6 6
Wind_Direction
286 197 136 136 143 149 145 145 144 142 139 135 132 132 131 129 127 128 127 127 126 125 122 120 117 114 111 109 107 106 104 101 99 95 90 91 95 94 90 85 80 75 82
175 153 126 129 133 144 151 149 148 148 148 146 144 142 142 139 137 136 135 134 133 131 129 126 124 121 117 114 113 111 109 106 103 97 88 87 95 98 95 92 89 87 85
116 128 124 122 130 138 147 153 154 155 158 156 154 153 152 150 148 146 144 142 140 137 135 132 127 126 123 120 119 118 115 112 108 101 92 86 99 102 100 97 94 91 89
100 104 115 110 125 135 144 155 162 163 167 167 164 163 162 159 157 156 153 151 148 145 141 138 132 130 128 127 126 125 121 117 112 107 90 89 102 107 105 102 97 94 92
66 66 101 110 121 137 145 157 168 174 175 177 174 171 170 168 165 163 160 157 154 149 146 142 138 136 136 135 132 129 125 119 111 107 95 96 102 112 107 103 99 96 95
53 37 81 115 131 151 159 169 172 181 188 186 182 180 178 176 173 169 165 161 157 153 151 149 146 144 144 143 140 135 129 118 109 108 110 114 114 118 114 110 108 105 102
43 25 46 103 129 183 189 185 186 184 195 196 191 188 185 182 179 174 171 167 161 160 158 156 154 153 153 153 149 141 130 117 119 124 127 129 134 128 122 120 117 113 109
45 28 18 16 357 256 227 206 203 198 198 202 201 196 192 188 183 176 174 172 169 167 164 162 161 161 161 160 155 143 129 121 129 133 141 148 149 137 130 126 123 120 117
31 21 5 353 342 305 263 233 220 213 209 207 206 204 196 193 185 179 176 177 176 172 170 166 166 167 168 168 163 151 135 123 132 141 153 160 157 148 140 136 133 127 122
23 14 356 344 331 309 276 246 238 230 223 217 211 207 200 194 191 185 181 181 180 176 173 170 171 172 172 172 170 161 148 130 146 156 161 177 170 158 152 150 145 140 135
1 354 346 338 327 309 279 256 247 238 233 224 214 209 201 198 194 190 187 185 183 181 178 175 175 174 172 176 176 170 156 147 157 170 172 183 177 168 162 161 159 156 151
342 337 336 327 319 313 292 274 246 240 234 226 210 202 200 196 197 194 190 189 187 185 183 181 179 176 169 174 182 176 163 166 171 183 189 187 184 177 172 172 172 171 169
322 324 327 322 314 307 296 283 265 250 238 231 216 203 197 195 198 193 184 187 188 185 183 185 178 176 175 178 183 184 185 183 184 196 196 193 190 185 182 181 182 184 183
319 318 321 321 313 300 286 280 265 256 243 234 226 210 194 195 198 191 187 183 182 183 181 180 179 182 186 190 192 194 195 197 193 197 203 198 197 194 190 189 191 194 195
312 313 317 319 312 301 295 283 276 253 248 233 227 221 203 198 200 193 190 186 185 182 183 183 184 188 193 197 202 202 203 204 199 198 202 201 201 200 199 199 199 202 204
309 310 313 314 308 305 303 283 267 253 250 241 225 227 212 204 203 195 191 189 189 187 187 187 188 191 197 199 208 211 209 205 202 198 200 200 203 202 203 205 206 208 209
305 308 310 309 309 307 297 280 271 258 250 243 238 228 220 213 206 201 191 192 193 188 185 185 185 186 195 202 210 214 209 205 201 200 197 195 198 205 204 207 207 208 211
317 315 309 310 311 304 295 282 268 263 250 248 245 233 224 222 207 199 196 196 194 188 185 187 187 190 198 202 209 215 212 205 204 201 195 194 195 202 210 212 211 212 215
315 312 312 308 304 300 292 283 273 265 258 255 251 242 239 226 210 199 199 199 190 190 190 193 191 190 195 201 209 213 211 208 205 201 198 198 199 199 201 214 215 214 216
326 320 310 308 298 294 291 286 286 289 281 275 258 247 245 233 211 200 202 200 191 188 193 196 192 191 193 195 205 215 218 213 206 204 205 201 202 204 204 207 210 217 217
336 333 322 310 303 302 300 281 270 269 271 269 256 254 248 238 220 203 208 202 195 193 196 196 193 190 194 177 168 213 249 229 217 214 208 203 206 205 202 206 208 209 218
329 328 324 314 307 299 281 266 244 241 241 242 255 256 251 242 229 215 207 205 199 195 195 195 189 190 194 182 168 159 211 250 244 227 213 210 210 203 207 211 208 209 214
324 323 321 318 316 308 299 295 301 294 286 263 256 249 244 236 227 218 215 208 207 200 199 197 192 190 194 195 179 168 173 209 227 241 221 214 211 208 212 212 212 213 214
317 321 322 320 321 314 305 287 260 251 255 254 253 252 250 230 220 219 211 210 207 209 206 202 196 192 186 194 198 201 191 167 175 223 249 226 218 217 217 218 218 218 216
323 327 327 331 332 335 338 316 275 263 259 260 260 255 259 249 226 220 216 211 212 211 211 211 206 196 193 194 191 189 199 201 173 181 227 226 233 228 223 223 221 220 218
334 338 338 343 342 342 348 343 316 284 274 268 266 260 261 253 237 229 224 218 220 218 211 210 210 203 203 199 195 188 179 184 187 186 225 238 241 237 231 224 221 222 221